When you browse on this site, cookies collect data to enhance your experience and personalize the content and advertising you see.
Visit our Privacy Policy to learn more. By continuing to use the site, you agree to this use of cookies and data.

Previsão horária em Graz

Hoje, 24 Setembro, Quinta-feira

Tempo Temperatura Precipitação Vento Pressão Humidade
00:00 +15°C° 0 mm 1 m/s 719 mmHg 90%
01:00 +14°C° 0 mm 1 m/s 719 mmHg 91%
02:00 +14°C° 0 mm 1 m/s 719 mmHg 91%
03:00 +14°C° 0 mm 1 m/s 719 mmHg 91%
04:00 +14°C° 0 mm 1 m/s 719 mmHg 91%
05:00 +14°C° 0 mm 1 m/s 720 mmHg 90%
06:00 +14°C° 0 mm 1 m/s 720 mmHg 89%
07:00 +15°C° 0 mm 1 m/s 720 mmHg 88%
08:00 +18°C° 0 mm 1 m/s 720 mmHg 80%
09:00 +20°C° 0 mm 1 m/s 721 mmHg 72%
10:00 +21°C° 0 mm 0 m/s 721 mmHg 64%
11:00 +23°C° 0.2 mm 1 m/s 721 mmHg 62%
12:00 +24°C° 0.2 mm 1 m/s 721 mmHg 59%
13:00 +24°C° 0.2 mm 1 m/s 720 mmHg 57%
14:00 +24°C° 0.1 mm 1 m/s 720 mmHg 59%
15:00 +24°C° 0.1 mm 1 m/s 720 mmHg 62%
16:00 +23°C° 0.1 mm 1 m/s 719 mmHg 64%
17:00 +22°C° 0 mm 1 m/s 719 mmHg 71%
18:00 +20°C° 0 mm 1 m/s 719 mmHg 78%
19:00 +18°C° 0 mm 1 m/s 718 mmHg 85%
20:00 +18°C° 0 mm 1 m/s 718 mmHg 87%
21:00 +16°C° 0 mm 1 m/s 718 mmHg 90%
22:00 +16°C° 0 mm 1 m/s 717 mmHg 92%
23:00 +16°C° 0 mm 1 m/s 717 mmHg 92%

Amanhã, 25 Setembro, Sexta-feira

Tempo Temperatura Precipitação Vento Pressão Humidade
00:00 +16°C° 0 mm 1 m/s 716 mmHg 91%
01:00 +16°C° 0 mm 1 m/s 716 mmHg 91%
02:00 +16°C° 0 mm 1 m/s 715 mmHg 92%
03:00 +16°C° 0 mm 1 m/s 715 mmHg 92%
04:00 +16°C° 0 mm 1 m/s 714 mmHg 92%
05:00 +16°C° 0.1 mm 1 m/s 714 mmHg 92%
06:00 +16°C° 0.1 mm 1 m/s 713 mmHg 92%
07:00 +16°C° 0.1 mm 1 m/s 713 mmHg 92%
08:00 +18°C° 0.3 mm 1 m/s 713 mmHg 92%
09:00 +18°C° 0.3 mm 1 m/s 713 mmHg 91%
10:00 +18°C° 0.3 mm 1 m/s 713 mmHg 91%
11:00 +19°C° 1.1 mm 1 m/s 713 mmHg 88%
12:00 +19°C° 1.1 mm 1 m/s 713 mmHg 86%
13:00 +18°C° 1.1 mm 2 m/s 712 mmHg 83%
14:00 +17°C° 1.2 mm 2 m/s 712 mmHg 85%
15:00 +16°C° 1.2 mm 2 m/s 712 mmHg 86%
16:00 +15°C° 1.2 mm 2 m/s 712 mmHg 87%
17:00 +14°C° 0.9 mm 2 m/s 712 mmHg 89%
18:00 +13°C° 0.9 mm 2 m/s 712 mmHg 91%
19:00 +10°C° 0.9 mm 2 m/s 711 mmHg 93%
20:00 +9°C° 2.6 mm 3 m/s 711 mmHg 93%
21:00 +8°C° 2.6 mm 3 m/s 711 mmHg 93%
22:00 +6°C° 2.6 mm 4 m/s 711 mmHg 93%
23:00 +5°C° 3.8 mm 3 m/s 711 mmHg 93%

Depois de amanhã, 26 Setembro, Sábado

Tempo Temperatura Precipitação Vento Pressão Humidade
00:00 +5°C° 3.8 mm 3 m/s 710 mmHg 93%
01:00 +4°C° 3.8 mm 3 m/s 710 mmHg 93%
02:00 +4°C° 4.1 mm 3 m/s 710 mmHg 93%
03:00 +4°C° 4.1 mm 3 m/s 710 mmHg 93%
04:00 +4°C° 4.1 mm 3 m/s 710 mmHg 94%
05:00 +4°C° 0.4 mm 3 m/s 710 mmHg 93%
06:00 +4°C° 0.4 mm 3 m/s 710 mmHg 92%
07:00 +5°C° 0.4 mm 3 m/s 710 mmHg 91%
08:00 +5°C° 0.4 mm 3 m/s 711 mmHg 90%
09:00 +7°C° 0.4 mm 3 m/s 711 mmHg 89%
10:00 +8°C° 0.4 mm 2 m/s 712 mmHg 88%
11:00 +9°C° 0.1 mm 3 m/s 712 mmHg 84%
12:00 +9°C° 0.1 mm 3 m/s 713 mmHg 80%
13:00 +10°C° 0.1 mm 3 m/s 713 mmHg 75%
14:00 +10°C° 0 mm 3 m/s 713 mmHg 75%
15:00 +10°C° 0 mm 3 m/s 714 mmHg 74%
16:00 +8°C° 0 mm 4 m/s 714 mmHg 74%
17:00 +8°C° 0 mm 3 m/s 714 mmHg 77%
18:00 +7°C° 0 mm 3 m/s 714 mmHg 81%
19:00 +5°C° 0 mm 2 m/s 714 mmHg 84%
20:00 +5°C° 0 mm 2 m/s 714 mmHg 84%
21:00 +4°C° 0 mm 2 m/s 715 mmHg 84%
22:00 +4°C° 0 mm 2 m/s 715 mmHg 84%
23:00 +4°C° 0 mm 2 m/s 715 mmHg 84%

27 Setembro, Domingo

Tempo Temperatura Precipitação Vento Pressão Humidade
00:00 +3°C° 0 mm 2 m/s 715 mmHg 85%
01:00 +3°C° 0 mm 2 m/s 715 mmHg 86%
02:00 +3°C° 0 mm 2 m/s 715 mmHg 86%
03:00 +3°C° 0 mm 2 m/s 715 mmHg 86%
04:00 +3°C° 0 mm 2 m/s 715 mmHg 86%
05:00 +3°C° 0 mm 2 m/s 715 mmHg 85%
06:00 +3°C° 0 mm 2 m/s 715 mmHg 83%
07:00 +4°C° 0 mm 2 m/s 715 mmHg 82%
08:00 +7°C° 0 mm 1 m/s 715 mmHg 76%
09:00 +9°C° 0 mm 1 m/s 716 mmHg 71%
10:00 +11°C° 0 mm 1 m/s 716 mmHg 65%
11:00 +12°C° 0 mm 1 m/s 716 mmHg 62%
12:00 +13°C° 0 mm 1 m/s 716 mmHg 59%
13:00 +14°C° 0 mm 1 m/s 716 mmHg 56%
14:00 +13°C° 0 mm 1 m/s 716 mmHg 58%
15:00 +13°C° 0 mm 1 m/s 716 mmHg 60%
16:00 +12°C° 0 mm 1 m/s 716 mmHg 61%
17:00 +10°C° 0 mm 1 m/s 716 mmHg 68%
18:00 +7°C° 0 mm 2 m/s 716 mmHg 74%
19:00 +5°C° 0 mm 2 m/s 716 mmHg 81%
20:00 +5°C° 0 mm 2 m/s 717 mmHg 81%
21:00 +4°C° 0 mm 2 m/s 717 mmHg 81%
22:00 +4°C° 0 mm 2 m/s 718 mmHg 82%
23:00 +4°C° 0 mm 2 m/s 718 mmHg 81%

28 Setembro, Segunda-feira

Tempo Temperatura Precipitação Vento Pressão Humidade
00:00 +4°C° 0 mm 2 m/s 718 mmHg 81%
01:00 +4°C° 0 mm 2 m/s 718 mmHg 81%
02:00 +4°C° 0 mm 2 m/s 718 mmHg 80%
03:00 +4°C° 0 mm 2 m/s 718 mmHg 80%
04:00 +4°C° 0 mm 2 m/s 718 mmHg 80%
05:00 +4°C° 0 mm 2 m/s 718 mmHg 78%
06:00 +4°C° 0 mm 2 m/s 718 mmHg 77%
07:00 +4°C° 0 mm 2 m/s 718 mmHg 76%
08:00 +8°C° 0 mm 1 m/s 719 mmHg 69%
09:00 +10°C° 0 mm 1 m/s 719 mmHg 63%
10:00 +12°C° 0 mm 1 m/s 719 mmHg 57%
11:00 +13°C° 0 mm 1 m/s 719 mmHg 55%
12:00 +13°C° 0 mm 1 m/s 719 mmHg 53%
13:00 +14°C° 0 mm 1 m/s 719 mmHg 52%
14:00 +14°C° 0 mm 1 m/s 719 mmHg 55%
15:00 +13°C° 0 mm 1 m/s 719 mmHg 59%
16:00 +13°C° 0 mm 1 m/s 719 mmHg 62%
17:00 +12°C° 0 mm 1 m/s 719 mmHg 68%
18:00 +10°C° 0 mm 1 m/s 719 mmHg 74%
19:00 +9°C° 0 mm 1 m/s 719 mmHg 80%
20:00 +8°C° 0 mm 1 m/s 719 mmHg 82%
21:00 +8°C° 0 mm 1 m/s 719 mmHg 83%
22:00 +8°C° 0 mm 1 m/s 720 mmHg 85%
23:00 +8°C° 0 mm 1 m/s 720 mmHg 85%

29 Setembro, Terça-feira

Tempo Temperatura Precipitação Vento Pressão Humidade
00:00 +8°C° 0 mm 1 m/s 720 mmHg 84%
01:00 +8°C° 0 mm 1 m/s 720 mmHg 84%
02:00 +8°C° 0 mm 1 m/s 720 mmHg 84%
03:00 +8°C° 0 mm 1 m/s 720 mmHg 84%
04:00 +8°C° 0 mm 1 m/s 720 mmHg 84%
05:00 +7°C° 0 mm 2 m/s 720 mmHg 83%
06:00 +7°C° 0 mm 2 m/s 720 mmHg 83%
07:00 +7°C° 0 mm 2 m/s 720 mmHg 82%
08:00 +9°C° 0 mm 2 m/s 720 mmHg 78%
09:00 +12°C° 0 mm 2 m/s 720 mmHg 75%
10:00 +13°C° 0 mm 2 m/s 721 mmHg 72%
11:00 +14°C° 0 mm 2 m/s 721 mmHg 71%
12:00 +15°C° 0 mm 2 m/s 721 mmHg 70%
13:00 +16°C° 0 mm 2 m/s 721 mmHg 69%
14:00 +16°C° 0 mm 1 m/s 721 mmHg 71%
15:00 +16°C° 0 mm 1 m/s 722 mmHg 74%
16:00 +16°C° 0 mm 1 m/s 722 mmHg 76%
17:00 +14°C° 0 mm 1 m/s 722 mmHg 80%
18:00 +13°C° 0 mm 1 m/s 722 mmHg 84%
19:00 +12°C° 0 mm 2 m/s 722 mmHg 88%
20:00 +10°C° 0 mm 2 m/s 723 mmHg 89%
21:00 +10°C° 0 mm 2 m/s 723 mmHg 89%
22:00 +10°C° 0 mm 2 m/s 723 mmHg 89%
23:00 +10°C° 0 mm 2 m/s 723 mmHg 89%
Mostrar mais